Regional Weather Roundup
Issued by NWS State College, PA

Home | Current Version | Previous Version | Text Only | Print | Product List | Glossary On
Versions: 1 2 3 4 5 6 7 8 9 10 11 12 13 14 15 16 17 18 19 20 21 22 23 24 25 26 27 28 29 30 31 32 33 34 35 36 37 38 39 40 41 42 43 44 45 46 47 48 49 50
503
ASUS41 KCTP 202210
RWRCTP

REGIONAL WEATHER ROUNDUP
NATIONAL WEATHER SERVICE STATE COLLEGE PA
600 PM EDT FRI APR 20 2018

Note: "fair" indicates few or no clouds below 12,000 feet with no
significant weather and/or obstructions to visibility.

* = STATION THAT DOES NOT REPORT PRECIPITATION /E.G. RAIN...SNOW...ETC/
    THUNDER OR FOG.

PAZ002>004-007>009-013>016-020>023-029>032-202300-
WESTERN PENNSYLVANIA

CITY           SKY/WX    TMP DP  RH WIND       PRES   REMARKS
ERIE           FAIR      45  26  47 W14G20    30.43S
MEADVILLE      FAIR      44  23  43 NW10      30.41R
FRANKLIN*      FAIR      45  23  42 W10G16    30.39R
NEW CASTLE     FAIR      49  23  36 NW9       30.42R
BEAVER COUNTY  SUNNY     50  18  27 NW8G16    30.39S
BUTLER*        FAIR      49  19  30 VRB5      30.39R
PITTSBURGH INT FAIR      52  18  26 NW14      30.37S
PITTSBURGH     FAIR      52  19  27 NW12G23   30.36S
INDIANA*       SUNNY     52  23  32 N10G20    30.38R
LATROBE        SUNNY     50  23  34 NW12G23   30.37R
WASHINGTON CO* FAIR      53  21  28 NW12      30.40S
$$

PAZ004>006-010>012-017>019-024>028-033>037-041-042-045-046-049>053-202300-
CENTRAL PENNSYLVANIA

CITY           SKY/WX    TMP DP  RH WIND       PRES   REMARKS
BRADFORD       FAIR      42  23  46 N17       30.34R
DUBOIS         FAIR      47  22  37 N15G22    30.32R
CLEARFIELD     FAIR      50  22  33 NW12      30.32R
JOHNSTOWN      FAIR      47  24  40 NW18      30.30R
ALTOONA        FAIR      53  24  32 N16G22    30.31R
STATE COLLEGE  SUNNY     52  21  30 NW9G21    30.30R
WILLIAMSPORT   FAIR      50  22  33 N14G22    30.31R
SELINSGROVE    FAIR      51  27  39 NE13      30.29R
FT INDIANTOWN  MOSUNNY   53  24  33 NE5G17    30.27R
CAPITAL CITY   FAIR      59  25  27 NW20G26   30.26S
HARRISBURG     FAIR      56  26  31 NW18      30.25S
YORK           FAIR      56  27  32 NW12G23   30.27R
$$

PAZ038>040-043-044-047-048-054-055-060>062-067>071-202300-
EASTERN PENNSYLVANIA

CITY           SKY/WX    TMP DP  RH WIND       PRES   REMARKS
SCRANTON       CLOUDY    42  24  49 NW20G26   30.30R
MOUNT POCONO   FAIR      37  22  54 NW20G30   30.24R
ALLENTOWN      FAIR      49  24  37 N17       30.29R
QUAKERTOWN*    CLEAR     48  25  40 N13G22    30.27R
READING        FAIR      51  26  37 N14G23    30.27R
LANCASTER      FAIR      54  29  38 N16       30.26R
COATESVILLE    FAIR      50  25  37 N15G22    30.27R
POTTSTOWN      FAIR      50  25  37 NW13G22   30.28R
BLUE BELL      FAIR      50  27  40 NW10G20   30.28R
DOYLESTOWN     FAIR      51  24  34 N16G24    30.25R
WILLOW GROVE   NOT AVBL
NORTH PHILA    FAIR      54  25  32 N15G29    30.27R
PHILADELPHIA   FAIR      53  24  32 NW16G25   30.26R
$$




USA.gov is the U.S. government's official web portal to all federal, state and local government web resources and services.